Wind_Speed
24 24 24 25 24 25 25 24 24 24 24 24 23 22 21 21 21 21 22 21 21 22 22 21 21 22 22 22 23 23 22 22 22 21 20 19 19 20 21 21 21 21 21 21
24 25 25 25 25 25 26 26 25 25 23 23 23 22 22 22 21 22 22 22 22 22 21 21 22 23 23 22 23 22 21 21 20 20 19 19 19 19 20 20 20 20 21 21
24 25 26 26 25 25 25 25 25 25 24 23 23 23 23 22 22 22 22 22 22 22 22 22 22 23 23 22 22 22 22 21 20 20 19 19 19 20 20 20 20 20 21 21
24 25 27 26 26 25 25 25 25 25 24 23 23 22 23 22 23 23 22 23 23 23 23 23 23 23 23 22 22 22 21 21 20 20 20 20 20 20 20 21 21 21 20 20
24 25 26 26 26 25 26 26 25 25 25 24 23 23 23 22 23 23 24 24 23 23 23 24 23 22 22 22 22 21 21 21 21 21 21 21 21 21 20 20 20 20 20 20
24 25 26 25 25 25 26 27 26 25 24 24 24 24 24 23 24 24 24 23 23 24 24 23 23 23 22 23 23 22 22 21 21 21 21 21 21 21 20 20 20 20 20 20
25 26 27 27 26 25 26 26 25 25 25 24 24 25 25 24 24 25 24 24 24 24 24 23 23 23 23 22 22 23 22 22 21 21 21 20 20 20 19 20 20 20 20 20
24 26 27 26 26 27 27 25 24 24 24 23 24 24 25 24 24 25 25 24 24 24 24 24 24 24 24 23 23 23 22 22 21 20 20 20 20 20 19 19 20 20 21 21
24 25 25 25 25 26 26 25 24 24 23 23 23 24 24 24 25 26 25 24 25 25 24 24 24 24 24 24 23 23 22 21 20 20 20 20 20 20 20 19 20 19 19 19
23 25 26 26 25 25 25 25 24 24 23 23 23 23 23 23 24 25 25 25 25 25 25 24 24 23 24 24 23 23 22 21 20 20 20 20 20 20 20 19 19 19 19 19
22 22 23 23 24 24 23 23 23 23 23 23 24 24 24 24 24 25 25 25 25 26 25 25 25 25 25 25 24 23 22 21 21 21 21 21 20 20 20 19 19 19 19 20
21 21 21 22 22 22 22 21 22 22 22 22 23 22 23 23 24 25 25 25 26 26 25 25 25 25 24 24 24 24 23 22 22 22 21 21 21 21 21 20 19 19 19 20
20 20 21 21 21 21 21 21 21 21 21 21 22 22 22 22 22 23 24 25 25 25 25 24 24 25 24 24 24 23 23 24 24 23 23 22 22 21 21 21 20 20 20 20
18 18 19 20 20 20 20 21 21 21 21 21 22 22 22 22 22 23 23 23 24 24 24 24 25 24 24 24 24 24 24 24 23 23 23 23 22 22 21 21 21 21 21 21
16 16 16 17 18 19 19 19 19 20 21 21 21 21 21 21 22 22 22 23 23 23 23 23 24 24 24 24 25 25 25 25 24 24 24 23 23 23 22 22 22 22 22 22
13 13 13 15 15 16 18 18 18 18 18 19 20 21 20 20 20 20 21 21 22 23 23 23 23 23 24 24 25 26 26 26 26 25 25 24 24 24 23 23 23 23 22 22
11 12 12 13 13 14 14 15 16 17 17 18 18 19 19 18 18 19 20 21 21 22 22 23 23 23 24 24 25 26 26 25 25 25 25 25 25 25 24 23 24 24 23 23
11 11 12 12 12 12 12 13 15 16 16 16 17 17 17 17 17 18 20 21 22 22 23 23 23 23 23 24 24 24 25 25 25 25 25 25 25 25 24 25 25 26 25 24
10 11 11 10 11 11 12 13 14 14 14 15 16 16 16 16 17 18 19 20 20 21 22 22 22 22 23 23 23 23 24 24 25 25 25 25 25 25 25 25 26 26 26 26
10 10 11 11 11 12 12 13 14 14 15 16 16 17 17 17 18 19 19 20 21 22 22 22 22 22 23 23 23 23 23 24 24 25 25 26 26 26 26 26 26 26 26 27
11 11 12 12 12 13 14 14 14 15 15 16 17 18 18 18 19 19 20 21 21 22 22 22 22 23 23 23 23 23 24 24 25 25 26 26 26 26 26 26 26 26 26 26
12 12 13 14 14 14 14 15 15 16 16 17 17 17 17 18 19 19 19 20 20 21 21 21 22 22 22 23 23 23 24 24 25 26 26 26 26 26 26 26 26 27 27 27
12 13 14 15 16 16 16 16 15 16 16 16 16 17 17 18 18 19 19 19 20 21 21 21 21 22 23 23 23 23 23 24 25 26 27 27 27 27 27 27 27 27 28 28
13 13 14 15 15 16 16 16 16 16 16 16 16 17 17 17 18 19 19 20 20 20 20 21 21 21 22 22 22 22 23 23 23 24 25 26 27 27 27 27 27 27 28 28
12 12 12 13 14 14 15 15 15 15 15 16 16 17 17 17 18 17 18 19 19 19 19 20 20 20 20 20 21 22 22 22 23 23 24 25 26 26 26 27 28 27 28 28
12 12 12 13 13 13 14 14 14 15 15 15 15 15 15 16 16 16 17 17 17 17 18 19 20 20 20 20 21 22 22 23 23 24 25 25 25 26 26 26 27 27 27 28
12 12 12 12 12 12 13 14 15 15 15 15 14 14 14 15 15 16 16 16 16 17 17 18 18 19 20 21 21 21 22 22 23 24 24 25 25 25 26 26 26 26 27 27
Wind_Direction
243 244 245 244 243 243 242 243 247 249 251 253 255 256 255 256 257 259 260 261 261 262 264 264 265 267 268 266 264 261 261 261 262 264 263 261 264 264 264 265 265 267 268 269
245 244 245 244 243 243 244 244 248 251 253 253 254 256 254 254 255 257 259 261 263 264 263 265 267 266 267 263 260 260 262 262 262 266 267 265 265 265 266 266 266 268 271 271
246 245 247 245 243 245 246 246 249 251 255 255 256 255 255 255 255 254 258 261 264 263 263 262 264 264 263 261 259 259 259 259 261 262 263 263 264 266 268 269 268 270 272 271
246 246 247 247 245 245 246 247 250 252 253 256 257 256 257 256 254 255 257 260 263 265 264 263 263 263 260 258 258 258 257 257 259 260 261 263 264 267 269 270 269 269 269 270
246 247 250 248 245 245 246 247 248 251 252 253 254 255 256 255 255 256 256 258 260 262 263 262 262 261 258 255 256 257 257 258 259 260 261 263 264 268 268 268 268 268 267 268
245 245 249 248 246 246 248 250 251 251 251 252 252 254 256 256 256 257 256 257 257 261 264 262 259 259 256 254 255 257 257 257 258 260 262 263 264 266 267 268 268 268 268 269
245 246 249 248 246 247 250 251 252 252 253 253 252 253 255 256 256 257 258 258 259 262 262 260 257 256 255 256 256 255 256 257 257 259 260 263 264 266 267 268 269 270 270 269
246 248 247 248 249 250 251 250 252 253 254 252 252 253 254 256 258 257 258 259 259 259 259 257 256 256 256 256 256 255 255 256 256 258 261 265 266 266 267 268 269 271 272 272
248 248 249 248 250 252 251 250 252 253 254 253 253 254 254 256 257 258 259 260 259 258 258 255 254 255 255 255 255 255 254 255 255 258 261 263 265 267 267 269 272 272 273 274
249 248 250 250 251 252 250 249 250 251 252 251 252 253 252 254 256 256 257 257 257 258 258 255 254 254 254 254 254 254 254 256 258 260 262 264 265 267 268 269 272 272 271 275
254 253 252 250 250 249 248 249 248 248 249 248 251 253 253 255 254 253 252 254 256 258 258 256 256 255 255 257 256 254 255 257 258 259 262 264 265 267 269 270 270 271 274 277
256 255 252 248 247 246 245 245 245 245 246 248 251 253 254 255 255 253 253 255 256 257 258 256 256 256 257 258 255 251 252 255 257 259 262 264 266 268 267 268 268 270 274 277
256 254 251 247 247 244 242 242 243 243 245 247 249 251 252 253 256 253 252 253 255 256 257 257 256 255 255 256 252 250 252 254 256 259 264 266 266 267 266 266 267 270 274 277
256 253 250 247 246 245 243 243 244 245 247 249 251 250 251 254 257 258 258 258 257 257 256 257 256 256 256 255 251 250 253 254 256 259 262 264 265 266 265 265 267 270 273 275
257 256 252 248 247 246 245 244 245 247 249 250 250 250 251 255 256 256 256 256 257 256 256 257 256 255 255 254 252 252 253 254 256 258 261 263 265 266 265 266 267 269 271 273
258 257 251 246 246 247 246 244 245 247 249 252 251 252 252 254 255 255 254 255 256 256 256 257 257 256 256 254 253 253 253 253 255 257 260 262 264 265 266 267 268 268 269 270
253 249 242 240 244 246 244 244 245 248 250 252 253 254 255 255 256 256 257 259 258 255 255 255 256 257 257 255 254 253 253 252 253 255 257 260 262 264 264 266 269 269 269 269
248 247 246 244 247 247 249 250 249 250 252 253 254 255 255 256 256 258 258 258 258 256 256 256 256 256 257 256 255 254 252 252 253 255 257 260 262 265 266 266 268 269 269 270
248 247 245 242 245 248 249 247 249 252 253 253 254 256 257 256 255 257 259 259 258 257 257 256 254 254 255 255 255 255 254 253 253 254 257 260 262 264 266 268 268 269 269 269
252 249 247 247 247 250 248 249 252 254 255 256 258 260 262 261 261 260 259 257 256 257 258 256 254 253 254 255 257 258 256 255 255 256 258 260 263 265 267 268 268 268 268 268
259 258 254 250 251 253 252 252 253 258 259 260 263 264 264 264 264 263 260 257 257 258 257 256 255 255 256 258 258 259 258 257 258 259 260 261 263 265 266 267 267 267 268 269
265 264 259 254 255 259 259 260 260 262 264 264 265 267 267 266 265 265 265 263 260 259 259 258 257 256 257 258 259 259 260 260 260 261 261 262 264 265 266 268 268 267 268 269
270 270 268 263 261 262 264 264 263 264 268 265 265 269 270 269 270 269 267 266 262 260 259 258 257 257 257 258 259 260 261 261 261 261 261 261 263 265 266 269 270 269 268 269
273 271 269 267 266 265 266 267 268 270 271 271 269 270 271 272 271 270 269 268 266 264 262 260 258 258 259 260 261 261 262 263 264 264 263 262 262 264 266 268 269 269 269 270
280 279 276 273 271 270 269 269 270 272 274 276 276 275 275 274 273 272 270 268 266 264 263 262 262 263 262 263 264 264 265 266 266 266 266 265 263 265 268 269 270 270 269 270
287 288 284 280 278 277 276 275 275 276 277 277 277 276 276 277 277 275 272 270 268 265 264 262 262 263 264 265 266 266 266 267 267 268 267 267 267 268 270 270 270 270 270 270
287 286 285 283 283 282 281 281 281 280 279 278 277 277 278 279 281 278 275 274 271 269 268 267 265 265 265 267 269 269 269 269 269 270 270 270 269 269 270 270 271 271 271 270
Height
5748 5750 5752 5753 5756 5758 5760 5762 5765 5767 5769 5770 5771 5772 5773 5774 5775 5776 5777 5778 5779 5780 5780 5780 5781 5781 5781 5780 5780 5780 5780 5780 5781 5781 5781 5781 5782 5782 5783 5783 5784 5783 5783 5783
5741 5743 5745 5747 5749 5751 5753 5756 5758 5760 5762 5764 5764 5766 5767 5768 5769 5771 5772 5772 5773 5773 5774 5774 5775 5775 5775 5775 5775 5775 5775 5775 5775 5775 5775 5775 5776 5777 5777 5777 5777 5777 5777 5777
5734 5736 5737 5740 5743 5745 5747 5749 5752 5753 5756 5757 5759 5760 5761 5762 5763 5764 5765 5767 5767 5767 5767 5768 5768 5768 5769 5769 5769 5769 5769 5769 5770 5770 5770 5771 5771 5771 5771 5771 5771 5771 5771 5771
5727 5729 5730 5735 5736 5738 5741 5743 5745 5747 5749 5751 5752 5753 5754 5756 5757 5758 5759 5760 5761 5761 5761 5761 5762 5762 5762 5763 5763 5763 5763 5764 5764 5764 5765 5765 5766 5766 5766 5765 5765 5765 5765 5765
5721 5722 5724 5727 5729 5731 5733 5735 5738 5740 5742 5744 5745 5747 5747 5749 5750 5751 5753 5754 5754 5755 5755 5755 5755 5755 5756 5756 5757 5757 5757 5758 5759 5759 5760 5760 5760 5760 5760 5759 5759 5759 5759 5758
5714 5716 5718 5721 5722 5724 5727 5728 5731 5732 5734 5736 5738 5740 5741 5742 5743 5744 5745 5746 5747 5748 5748 5748 5748 5749 5749 5750 5751 5751 5751 5752 5753 5753 5754 5754 5754 5754 5754 5754 5753 5753 5753 5753
5707 5708 5710 5713 5714 5717 5721 5722 5723 5724 5726 5728 5730 5732 5734 5735 5736 5737 5738 5739 5740 5741 5741 5741 5742 5742 5743 5743 5744 5745 5746 5746 5747 5747 5748 5748 5748 5748 5748 5748 5747 5747 5747 5747
5700 5702 5705 5705 5708 5710 5711 5713 5715 5716 5718 5720 5722 5724 5726 5727 5728 5730 5731 5732 5733 5733 5734 5734 5735 5736 5736 5737 5738 5739 5740 5740 5741 5741 5742 5742 5742 5742 5742 5742 5742 5741 5741 5741
5694 5696 5696 5698 5699 5701 5703 5705 5707 5709 5711 5713 5715 5717 5719 5720 5721 5722 5723 5724 5725 5726 5727 5727 5728 5729 5729 5730 5731 5732 5733 5734 5734 5735 5735 5736 5736 5736 5736 5736 5735 5735 5735 5735
5685 5687 5689 5690 5691 5693 5695 5697 5700 5701 5703 5705 5708 5709 5711 5712 5713 5715 5716 5717 5718 5719 5719 5720 5721 5722 5722 5723 5724 5725 5726 5727 5728 5728 5729 5729 5730 5730 5729 5729 5729 5729 5729 5729
5678 5680 5681 5682 5684 5686 5688 5690 5692 5694 5696 5698 5700 5702 5703 5704 5706 5707 5708 5709 5710 5711 5712 5713 5714 5714 5715 5716 5717 5718 5719 5720 5721 5722 5723 5723 5723 5723 5723 5723 5723 5724 5723 5723
5672 5673 5674 5675 5677 5679 5681 5683 5685 5687 5689 5691 5692 5694 5695 5697 5698 5699 5700 5701 5702 5703 5704 5705 5706 5707 5708 5709 5710 5711 5713 5714 5715 5716 5716 5716 5717 5717 5717 5717 5717 5717 5717 5717
5665 5666 5667 5668 5670 5672 5674 5676 5678 5680 5682 5684 5686 5687 5688 5689 5690 5691 5692 5693 5694 5695 5696 5697 5698 5699 5700 5701 5703 5704 5706 5707 5708 5709 5709 5710 5710 5710 5710 5711 5711 5711 5711 5710
5659 5660 5661 5662 5664 5666 5668 5670 5672 5674 5675 5677 5678 5680 5681 5682 5683 5684 5684 5685 5687 5688 5689 5690 5691 5692 5693 5694 5695 5697 5698 5699 5700 5701 5702 5703 5703 5704 5704 5704 5704 5704 5704 5704
5653 5654 5656 5657 5659 5660 5662 5664 5666 5667 5668 5670 5671 5673 5674 5675 5676 5676 5677 5678 5679 5680 5681 5682 5683 5684 5685 5686 5687 5689 5690 5691 5693 5694 5695 5695 5696 5696 5697 5697 5697 5698 5698 5697
5649 5649 5651 5652 5654 5655 5657 5658 5660 5661 5662 5664 5665 5666 5667 5668 5668 5669 5670 5671 5671 5672 5673 5674 5675 5676 5677 5678 5679 5681 5682 5683 5685 5686 5687 5688 5689 5689 5690 5690 5690 5690 5690 5690
5645 5646 5647 5648 5649 5650 5652 5653 5654 5656 5656 5657 5658 5659 5660 5661 5661 5662 5663 5663 5664 5665 5665 5666 5667 5668 5669 5670 5671 5672 5674 5675 5676 5678 5679 5680 5680 5681 5682 5682 5682 5682 5683 5683
5642 5643 5643 5644 5645 5646 5647 5648 5650 5651 5651 5652 5653 5654 5654 5654 5655 5655 5656 5656 5657 5657 5658 5659 5659 5660 5661 5662 5663 5664 5665 5667 5668 5669 5671 5672 5672 5673 5673 5674 5674 5675 5675 5675
5638 5639 5640 5641 5642 5643 5644 5645 5645 5646 5647 5647 5647 5648 5648 5648 5649 5649 5649 5650 5650 5651 5651 5651 5652 5653 5654 5655 5655 5656 5657 5658 5660 5661 5663 5663 5664 5665 5665 5666 5666 5666 5667 5667
5636 5636 5637 5638 5638 5639 5640 5640 5641 5642 5642 5642 5642 5643 5643 5643 5643 5643 5643 5643 5643 5644 5644 5644 5645 5646 5646 5647 5648 5649 5650 5651 5652 5654 5655 5655 5656 5657 5657 5657 5658 5658 5658 5658
5633 5633 5633 5634 5635 5635 5635 5635 5636 5636 5637 5637 5637 5637 5637 5637 5637 5636 5636 5637 5637 5637 5637 5637 5638 5639 5639 5640 5641 5641 5642 5643 5644 5645 5646 5647 5647 5648 5648 5649 5649 5649 5649 5649
5629 5629 5630 5630 5631 5631 5631 5631 5631 5631 5632 5632 5631 5631 5631 5631 5631 5630 5630 5630 5630 5630 5630 5630 5631 5631 5632 5633 5633 5634 5635 5635 5636 5637 5638 5638 5639 5639 5640 5640 5640 5640 5640 5640
5625 5625 5625 5625 5626 5626 5626 5626 5626 5626 5626 5626 5626 5625 5625 5625 5625 5624 5624 5624 5623 5623 5623 5623 5624 5624 5625 5625 5625 5626 5626 5627 5628 5628 5628 5629 5630 5630 5630 5631 5631 5631 5631 5631
5621 5621 5621 5620 5620 5621 5621 5621 5621 5621 5620 5620 5620 5620 5619 5619 5618 5618 5617 5617 5616 5616 5616 5616 5617 5617 5617 5617 5618 5618 5619 5619 5619 5619 5619 5620 5620 5621 5621 5621 5621 5622 5622 5622
5617 5616 5616 5616 5616 5616 5615 5615 5615 5615 5615 5614 5614 5613 5613 5612 5612 5611 5611 5610 5610 5609 5609 5609 5610 5610 5610 5610 5611 5611 5611 5611 5611 5611 5610 5611 5611 5611 5611 5612 5612 5612 5612 5612
5613 5612 5612 5611 5611 5611 5610 5610 5610 5610 5609 5608 5608 5607 5607 5606 5606 5605 5604 5604 5603 5603 5603 5603 5603 5603 5603 5603 5603 5603 5603 5603 5602 5602 5602 5602 5602 5602 5602 5602 5602 5602 5602 5602
5609 5608 5608 5607 5607 5606 5605 5605 5604 5604 5603 5603 5602 5602 5601 5601 5600 5599 5598 5598 5597 5597 5596 5596 5596 5596 5596 5596 5595 5595 5595 5594 5594 5594 5593 5593 5593 5593 5593 5593 5593 5593 5593 5593